Tracking 23764 objects as of 17-Oct-2021
HD Live streaming from Space Station
objects crossing your sky now

ISS DEB (SEDA-AP)

Track ISS DEB (SEDA-AP) now!
10-day predictions


NORAD ID: 43870
Int'l Code: 1998-067PU
Perigee: 378.4 km
Apogee: 383.1 km
Inclination: 51.6 °
Period: 92.0 minutes
Semi major axis: 6751 km
RCS: Unknown
Launch date: November 20, 1998
Source: International Space Station (ISS)
Launch site: TYURATAM MISSILE AND SPACE COMPLEX (TTMTR)

Note: This is SATELLITE DEBRIS
aabbcc
Your satellite tracking list
Your tracking list is empty




NASA's NSSDC Master Catalog

Two Line Element Set (TLE):
1 43870U 98067PU  21289.35120228  .00014129  00000-0  14698-3 0  9995
2 43870  51.6354  39.9058 0003496  59.7882 300.3459 15.64878725160546
Source of the keplerian elements: AFSPC